N1IJV-10 Weather Reports


time (UTC)temp
F
wind
direction
speed
knots
gust
knots
rain 1hr
in
rain 24hr
in
rain mn
in
humidity
%
barometer
mb
20260509141757 61 136 1.7 7.0 0.00 0.00 0.00 77 1003.7
20260509141255 61 89 0.9 5.2 0.00 0.00 0.00 77 1003.8
20260509140751 60 184 2.6 6.1 0.00 0.00 0.00 78 1003.9
20260509140248 61 53 1.7 2.6 0.00 0.00 0.00 78 1003.9
20260509135746 60 100 0.0 2.6 0.00 0.00 0.00 79 1004.0
20260509135243 60 79 0.0 2.6 0.00 0.00 0.00 82 1004.0
20260509134740 59 190 2.6 4.3 0.00 0.00 0.00 82 1003.9
20260509134238 59 227 2.6 7.0 0.00 0.00 0.00 82 1003.7
20260509133735 58 159 4.3 5.2 0.00 0.00 0.00 83 1003.5
20260509133231 58 142 2.6 5.2 0.00 0.00 0.00 85 1003.5
20260509132730 57 165 3.5 5.2 0.00 0.00 0.00 85 1003.5
20260509132229 57 122 1.7 8.7 0.00 0.00 0.00 86 1003.6
20260509131725 57 170 4.3 6.1 0.00 0.00 0.00 86 1003.6
20260509131221 56 241 4.3 6.1 0.00 0.00 0.00 87 1004.0
20260509130717 56 201 2.6 7.0 0.00 0.00 0.00 87 1003.7
20260509130213 56 125 1.7 5.2 0.00 0.00 0.00 88 1003.6
20260509125710 56 178 2.6 5.2 0.00 0.00 0.00 89 1003.7
20260509125207 55 139 2.6 4.3 0.00 0.00 0.00 89 1003.7
20260509124703 55 175 2.6 5.2 0.00 0.00 0.00 90 1003.7
20260509124200 55 221 1.7 2.6 0.00 0.00 0.00 90 1003.7
20260509123659 55 163 0.9 1.7 0.00 0.00 0.00 91 1003.6
20260509123155 54 93 0.9 8.7 0.00 0.00 0.00 92 1003.7
20260509122650 54 169 4.3 7.0 0.00 0.00 0.00 93 1003.6
20260509122148 53 151 0.9 4.3 0.00 0.00 0.00 95 1003.7
20260509121644 53 202 4.3 5.2 0.00 0.00 0.00 96 1003.6
20260509121142 53 225 0.0 1.7 0.00 0.00 0.00 97 1003.7
20260509120640 52 323 3.5 5.2 0.00 0.00 0.00 97 1003.6
20260509120138 52 138 1.7 4.3 0.00 0.00 0.00 98 1003.7
20260509115635 51 280 1.7 4.3 0.00 0.00 0.00 98 1003.8
20260509115133 51 218 1.7 2.6 0.00 0.00 0.00 99 1003.8
20260509114631 51 144 0.9 2.6 0.00 0.00 0.00 99 1003.7
20260509114129 51 129 1.7 1.7 0.00 0.00 0.00 99 1003.7
20260509113628 51 153 0.9 1.7 0.00 0.00 0.00 99 1003.3
20260509113124 51 180 0.9 2.6 0.00 0.00 0.00 99 1003.5
20260509112621 51 162 0.9 1.7 0.00 0.00 0.00 99 1003.3
20260509112118 51 171 0.9 1.7 0.00 0.00 0.00 99 1003.3
20260509111615 50 114 0.9 1.7 0.00 0.00 0.00 99 1003.1
20260509111112 50 132 0.9 1.7 0.00 0.00 0.00 99 1003.2
20260509110609 51 102 0.0 0.9 0.00 0.00 0.00 99 1003.2
20260509110106 51 105 0.0 1.7 0.00 0.00 0.00 98 1003.6
20260509105604 51 160 0.9 1.7 0.00 0.00 0.00 98 1003.5
20260509105101 51 119 0.0 1.7 0.00 0.00 0.00 98 1003.4
20260509104558 51 190 1.7 4.3 0.00 0.00 0.00 98 1003.2
20260509104055 51 146 0.9 2.6 0.00 0.00 0.00 98 1003.3
20260509103553 51 165 0.9 1.7 0.00 0.00 0.00 98 1003.2
20260509103051 51 139 0.9 2.6 0.00 0.00 0.00 98 1003.1
20260509102548 51 79 0.9 1.7 0.00 0.00 0.00 98 1003.0
20260509102045 51 104 0.0 1.7 0.00 0.00 0.00 98 1003.0
20260509101541 51 108 0.9 2.6 0.00 0.00 0.00 98 1002.9
20260509101038 51 108 0.0 0.9 0.00 0.00 0.00 98 1003.0
20260509100535 51 115 0.9 0.9 0.00 0.00 0.00 98 1002.9
20260509100032 51 133 0.0 0.0 0.00 0.00 0.00 98 1003.1
20260509095529 51 192 0.9 1.7 0.00 0.00 0.00 98 1003.2
20260509095027 51 117 0.0 1.7 0.00 0.00 0.00 98 1003.2
20260509094522 51 124 0.0 2.6 0.00 0.00 0.00 98 1003.5
20260509094020 51 133 0.0 1.7 0.00 0.00 0.00 98 1003.5
20260509093518 51 202 0.0 1.7 0.00 0.00 0.00 98 1003.4
20260509093015 51 153 0.9 0.9 0.00 0.00 0.00 98 1003.5
20260509092513 51 109 0.0 1.7 0.00 0.00 0.00 98 1003.5
20260509092012 51 117 0.0 0.0 0.00 0.00 0.00 98 1003.5
20260509091508 51 185 0.9 1.7 0.00 0.00 0.00 98 1003.8
20260509091005 51 142 0.9 1.7 0.00 0.00 0.00 98 1003.7
20260509090502 51 113 0.9 1.7 0.00 0.00 0.00 98 1003.7
20260509090000 51 151 0.9 1.7 0.00 0.00 0.00 98 1003.9
20260509085457 51 273 1.7 2.6 0.00 0.00 0.00 97 1003.7
20260509084953 51 101 0.9 1.7 0.00 0.00 0.00 97 1003.6
20260509084450 51 188 0.9 1.7 0.00 0.00 0.00 97 1003.8
20260509083947 51 236 0.9 4.3 0.00 0.00 0.00 97 1003.6
20260509083445 51 136 0.9 0.9 0.00 0.00 0.00 97 1003.7
20260509082941 51 156 0.9 1.7 0.00 0.00 0.00 97 1003.8
20260509082438 51 117 0.9 1.7 0.00 0.00 0.00 97 1003.8
20260509081935 51 134 0.9 1.7 0.00 0.00 0.00 96 1003.7
20260509081427 51 101 0.9 1.7 0.00 0.00 0.00 96 1003.8
20260509080924 51 140 0.9 1.7 0.00 0.00 0.00 95 1003.9
20260509080422 51 131 0.0 0.9 0.00 0.00 0.00 95 1003.5
20260509075920 51 152 0.0 0.9 0.00 0.00 0.00 95 1003.8
20260509075416 52 133 0.0 1.7 0.00 0.00 0.00 95 1003.8
20260509074914 52 102 0.0 0.0 0.00 0.00 0.00 94 1003.9
20260509074412 52 100 0.0 0.9 0.00 0.00 0.00 94 1003.7
20260509073908 52 115 0.0 0.0 0.00 0.00 0.00 93 1004.0
20260509073404 53 115 0.0 0.0 0.00 0.00 0.00 93 1003.8
20260509072901 53 149 0.9 2.6 0.00 0.00 0.00 92 1004.1
20260509072357 53 155 0.0 1.7 0.00 0.00 0.00 92 1004.3
20260509071854 53 142 0.9 1.7 0.00 0.00 0.00 92 1004.0
20260509071351 53 120 1.7 2.6 0.00 0.00 0.00 92 1004.1
20260509070848 53 218 1.7 2.6 0.00 0.00 0.00 92 1004.0
20260509070345 53 230 1.7 1.7 0.00 0.00 0.00 92 1004.3
20260509065841 53 164 1.7 1.7 0.00 0.00 0.00 91 1004.6
20260509065337 53 180 0.9 2.6 0.00 0.00 0.00 91 1004.4
20260509064833 53 159 0.9 1.7 0.00 0.00 0.00 91 1004.5
20260509064331 54 228 1.7 1.7 0.00 0.00 0.00 91 1004.6
20260509063829 54 138 0.9 1.7 0.00 0.00 0.00 90 1004.8
20260509063324 54 126 0.9 2.6 0.00 0.00 0.00 90 1004.7
20260509062822 54 203 2.6 5.2 0.00 0.00 0.00 90 1004.6
20260509062319 54 133 0.9 2.6 0.00 0.00 0.00 90 1004.6
20260509061816 54 253 1.7 2.6 0.00 0.00 0.00 90 1004.8
20260509061314 54 101 1.7 2.6 0.00 0.00 0.00 90 1004.8
20260509060811 54 139 0.9 1.7 0.00 0.00 0.00 90 1005.0
20260509060308 54 251 0.0 4.3 0.00 0.00 0.00 89 1005.1
20260509055803 54 147 0.9 4.3 0.00 0.00 0.00 90 1004.9
20260509055259 54 118 0.0 1.7 0.00 0.00 0.00 89 1005.0
20260509054755 54 143 0.9 4.3 0.00 0.00 0.00 89 1005.0
20260509054252 54 181 0.9 2.6 0.00 0.00 0.00 89 1005.1
20260509053751 55 159 3.5 5.2 0.00 0.00 0.00 90 1005.2
20260509053248 55 254 0.9 2.6 0.00 0.00 0.00 90 1005.1
20260509052746 55 174 0.9 2.6 0.00 0.00 0.00 90 1005.2
20260509052243 55 96 1.7 4.3 0.00 0.00 0.00 90 1005.3
20260509051740 55 171 1.7 2.6 0.00 0.00 0.00 90 1005.4
20260509051239 55 172 1.7 2.6 0.00 0.00 0.00 89 1005.0
20260509050735 55 97 0.0 2.6 0.00 0.00 0.00 89 1005.0
20260509050231 55 245 1.7 1.7 0.00 0.00 0.00 89 1004.9
20260509045729 55 136 2.6 4.3 0.00 0.00 0.00 89 1005.0
20260509045225 55 143 0.9 1.7 0.00 0.00 0.00 88 1005.2
20260509044723 55 259 1.7 2.6 0.00 0.00 0.00 87 1005.0
20260509044221 56 320 1.7 1.7 0.00 0.00 0.00 87 1005.1
20260509043716 56 192 2.6 4.3 0.00 0.00 0.00 86 1005.1
20260509043213 56 109 1.7 2.6 0.00 0.00 0.00 86 1005.1
20260509042709 56 45 1.7 2.6 0.00 0.00 0.00 85 1005.2
20260509042205 56 260 3.5 4.3 0.00 0.00 0.00 84 1005.3
20260509041702 56 29 0.9 1.7 0.00 0.00 0.00 84 1005.2
20260509041200 56 107 0.9 1.7 0.00 0.00 0.00 83 1005.2
20260509040658 57 257 1.7 2.6 0.00 0.00 0.00 82 1005.3
20260509040154 57 123 0.0 1.7 0.00 0.00 0.00 81 1005.2
20260509035651 57 174 0.9 2.6 0.00 0.00 0.00 80 1005.1
20260509035148 58 174 2.6 4.3 0.00 0.00 0.00 79 1005.4
20260509034645 57 218 2.6 7.0 0.00 0.00 0.00 78 1005.4
20260509034142 58 249 1.7 5.2 0.00 0.00 0.00 77 1005.5
20260509033639 58 169 3.5 5.2 0.00 0.00 0.00 76 1005.2
20260509033136 58 321 1.7 4.3 0.00 0.00 0.00 76 1005.3
20260509032634 58 311 2.6 6.1 0.00 0.00 0.00 75 1005.3
20260509032130 58 251 3.5 5.2 0.00 0.00 0.00 75 1005.3
20260509031628 58 231 1.7 2.6 0.00 0.00 0.00 75 1005.3
20260509031125 58 292 2.6 2.6 0.00 0.00 0.00 75 1005.4
20260509030624 59 163 2.6 2.6 0.00 0.00 0.00 75 1005.4
20260509030120 59 138 0.9 1.7 0.00 0.00 0.00 74 1005.4
20260509025616 59 241 2.6 2.6 0.00 0.00 0.00 73 1005.2
20260509025112 59 115 1.7 4.3 0.00 0.00 0.00 72 1005.4
20260509024608 59 160 1.7 4.3 0.00 0.00 0.00 71 1005.4
20260509024104 59 118 1.7 4.3 0.00 0.00 0.00 70 1005.5
20260509023602 59 251 2.6 4.3 0.00 0.00 0.00 67 1005.3
20260509023059 60 310 1.7 1.7 0.00 0.00 0.00 65 1005.2
20260509022555 60 131 0.9 1.7 0.00 0.00 0.00 63 1005.2
20260509022053 60 265 0.9 1.7 0.00 0.00 0.00 63 1005.4
20260509021550 60 82 0.0 0.9 0.00 0.00 0.00 63 1005.3
20260509021047 60 100 0.0 0.9 0.00 0.00 0.00 62 1005.4
20260509020545 60 161 1.7 1.7 0.00 0.00 0.00 61 1005.0
20260509020042 60 120 0.0 1.7 0.00 0.00 0.00 61 1005.3
20260509015541 60 125 0.0 0.0 0.00 0.00 0.00 61 1005.3
20260509015037 61 141 0.0 0.9 0.00 0.00 0.00 60 1005.0
20260509014534 61 113 0.0 2.6 0.00 0.00 0.00 60 1005.2
20260509014030 61 125 0.0 0.9 0.00 0.00 0.00 59 1005.2
20260509013528 61 118 0.0 0.9 0.00 0.00 0.00 59 1005.0
20260509013023 62 112 0.0 1.7 0.00 0.00 0.00 59 1005.1
20260509012520 62 104 0.0 0.9 0.00 0.00 0.00 59 1005.3
20260509012017 62 126 0.9 0.9 0.00 0.00 0.00 58 1005.1
20260509011515 62 147 0.9 1.7 0.00 0.00 0.00 58 1005.1
20260509011012 63 137 0.9 1.7 0.00 0.00 0.00 57 1004.9
20260509010509 63 151 0.9 1.7 0.00 0.00 0.00 56 1004.9
20260509010005 63 118 0.9 4.3 0.00 0.00 0.00 55 1004.9
20260509005504 64 120 1.7 5.2 0.00 0.00 0.00 54 1004.9
20260509004958 64 228 0.9 4.3 0.00 0.00 0.00 55 1004.9
20260509004455 64 187 1.7 2.6 0.00 0.00 0.00 55 1005.0
20260509003952 64 146 1.7 4.3 0.00 0.00 0.00 54 1005.1
20260509003451 64 188 1.7 1.7 0.00 0.00 0.00 54 1005.1
20260509002947 65 125 1.7 4.3 0.00 0.00 0.00 53 1005.0
20260509002445 65 211 1.7 2.6 0.00 0.00 0.00 52 1005.2
20260509001942 65 206 0.9 2.6 0.00 0.00 0.00 52 1005.2
20260509001438 65 224 4.3 6.1 0.00 0.00 0.00 52 1005.2
20260509000935 65 195 0.9 2.6 0.00 0.00 0.00 51 1005.3
20260509000434 65 109 0.0 4.3 0.00 0.00 0.00 51 1005.4
20260508235929 65 124 0.0 0.9 0.00 0.00 0.00 52 1005.1
20260508235427 65 126 0.9 0.9 0.00 0.00 0.00 51 1005.1
20260508234923 65 174 0.9 1.7 0.00 0.00 0.00 52 1005.4
20260508234420 65 197 0.9 1.7 0.00 0.00 0.00 51 1005.3
20260508233918 65 127 1.7 1.7 0.00 0.00 0.00 49 1005.4
20260508233417 66 118 2.6 6.1 0.00 0.00 0.00 50 1005.3
20260508232914 66 106 0.0 0.9 0.00 0.00 0.00 51 1005.2
20260508232410 66 105 0.9 0.9 0.00 0.00 0.00 49 1005.5
20260508231908 66 138 2.6 2.6 0.00 0.00 0.00 48 1005.1
20260508231405 67 109 1.7 4.3 0.00 0.00 0.00 49 1005.2
20260508230902 66 212 1.7 1.7 0.00 0.00 0.00 50 1005.4
20260508230359 66 176 2.6 4.3 0.00 0.00 0.00 50 1005.3
20260508225856 66 180 0.9 4.3 0.00 0.00 0.00 51 1005.3
20260508225352 67 121 0.0 2.6 0.00 0.00 0.00 49 1005.5
20260508224850 67 162 0.9 4.3 0.00 0.00 0.00 48 1005.3
20260508224347 67 264 2.6 4.3 0.00 0.00 0.00 48 1005.4
20260508223845 68 172 1.7 2.6 0.00 0.00 0.00 47 1005.6
20260508223342 68 231 2.6 2.6 0.00 0.00 0.00 47 1005.5
20260508222839 69 136 2.6 4.3 0.00 0.00 0.00 46 1005.5
20260508222337 69 294 4.3 5.2 0.00 0.00 0.00 46 1005.6
20260508221833 69 235 1.7 4.3 0.00 0.00 0.00 45 1005.3
20260508221328 70 127 1.7 2.6 0.00 0.00 0.00 45 1005.4
20260508220825 69 268 1.7 2.6 0.00 0.00 0.00 46 1005.5
20260508220322 69 61 0.9 2.6 0.00 0.00 0.00 48 1005.6
20260508215818 68 168 1.7 5.2 0.00 0.00 0.00 49 1005.7
20260508215315 69 169 1.7 5.2 0.00 0.00 0.00 48 1005.6
20260508214812 69 131 0.9 2.6 0.00 0.00 0.00 48 1005.6
20260508214309 69 192 2.6 4.3 0.00 0.00 0.00 48 1005.7
20260508213806 71 232 2.6 4.3 0.00 0.00 0.00 46 1005.8
20260508213303 71 193 1.7 2.6 0.00 0.00 0.00 44 1005.7
20260508212759 70 118 0.0 2.6 0.00 0.00 0.00 49 1005.7
20260508212255 70 106 0.9 2.6 0.00 0.00 0.00 46 1006.0
20260508211751 69 152 0.9 1.7 0.00 0.00 0.00 50 1005.8
20260508211246 69 298 2.6 5.2 0.00 0.00 0.00 48 1005.9
20260508210745 68 95 0.0 1.7 0.00 0.00 0.00 51 1005.8
20260508210241 68 129 0.9 1.7 0.00 0.00 0.00 49 1005.9
20260508205738 67 194 2.6 5.2 0.00 0.00 0.00 48 1005.8
20260508205234 68 273 3.5 5.2 0.00 0.00 0.00 48 1005.9
20260508204731 69 179 1.7 4.3 0.00 0.00 0.00 49 1005.9
20260508204227 69 147 1.7 1.7 0.00 0.00 0.00 45 1005.8
20260508203723 68 153 0.9 4.3 0.00 0.00 0.00 48 1006.0
20260508203220 68 310 2.6 4.3 0.00 0.00 0.00 44 1006.2
20260508202716 68 138 0.9 2.6 0.00 0.00 0.00 44 1006.4
20260508202213 69 271 1.7 2.6 0.00 0.00 0.00 45 1006.2
20260508201710 68 174 3.5 5.2 0.00 0.00 0.00 45 1006.4
20260508201207 66 189 1.7 4.3 0.00 0.00 0.00 47 1006.4
20260508200704 67 83 1.7 4.3 0.00 0.00 0.00 47 1006.2
20260508200159 69 171 2.6 2.6 0.00 0.00 0.00 43 1006.7
20260508195656 70 287 4.3 6.1 0.00 0.00 0.00 44 1006.6
20260508195153 67 57 1.7 4.3 0.00 0.00 0.00 47 1006.8
20260508194649 68 131 0.9 4.3 0.00 0.00 0.00 48 1006.9
20260508194146 69 104 0.0 0.0 0.00 0.00 0.00 49 1007.0
20260508193643 69 96 0.0 0.9 0.00 0.00 0.00 46 1007.1
20260508193140 68 192 0.9 4.3 0.00 0.00 0.00 48 1007.1
20260508192637 68 100 0.9 2.6 0.00 0.00 0.00 49 1006.9
20260508192134 66 195 0.9 2.6 0.00 0.00 0.00 53 1007.2
20260508191631 65 3 0.9 1.7 0.00 0.00 0.00 55 1007.5
20260508191127 67 163 0.9 4.3 0.00 0.00 0.00 50 1007.3
20260508190625 67 112 0.9 1.7 0.00 0.00 0.00 50 1007.1
20260508190121 67 93 0.0 1.7 0.00 0.00 0.00 53 1007.4
20260508185618 66 283 1.7 2.6 0.00 0.00 0.00 50 1007.4
20260508185115 66 257 2.6 2.6 0.00 0.00 0.00 53 1007.6
20260508184612 65 135 2.6 5.2 0.00 0.00 0.00 52 1007.5
20260508184110 66 106 0.9 1.7 0.00 0.00 0.00 51 1007.7
20260508183606 66 95 0.0 1.7 0.00 0.00 0.00 52 1007.7
20260508183102 65 245 1.7 1.7 0.00 0.00 0.00 55 1007.6
20260508182558 66 278 2.6 2.6 0.00 0.00 0.00 54 1008.0
20260508182055 65 109 0.0 2.6 0.00 0.00 0.00 56 1007.8
20260508181555 65 170 0.0 0.9 0.00 0.00 0.00 55 1008.1
20260508181054 66 108 0.9 1.7 0.00 0.00 0.00 54 1007.9
20260508180550 64 103 0.9 1.7 0.00 0.00 0.00 56 1007.9
20260508180046 64 159 0.0 0.9 0.00 0.00 0.00 59 1007.9
20260508175543 66 120 0.0 2.6 0.00 0.00 0.00 55 1008.2
20260508175041 66 177 0.9 2.6 0.00 0.00 0.00 57 1008.4
20260508174538 66 275 3.5 4.3 0.00 0.00 0.00 58 1008.3
20260508174035 65 168 0.9 2.6 0.00 0.00 0.00 55 1008.5
20260508173532 65 129 1.7 1.7 0.00 0.00 0.00 59 1008.5
20260508173027 67 207 0.9 2.6 0.00 0.00 0.00 57 1008.4
20260508172525 67 102 0.9 0.9 0.00 0.00 0.00 56 1008.8
20260508172021 66 134 0.9 0.9 0.00 0.00 0.00 57 1008.6
20260508171518 66 234 0.9 2.6 0.00 0.00 0.00 58 1008.8
20260508171014 67 118 0.9 1.7 0.00 0.00 0.00 57 1008.8
20260508170512 67 103 0.0 0.9 0.00 0.00 0.00 61 1009.0
20260508170009 66 135 0.9 1.7 0.00 0.00 0.00 61 1008.9
20260508165507 65 148 1.7 2.6 0.00 0.00 0.00 60 1008.9
20260508165004 65 99 0.9 1.7 0.00 0.00 0.00 60 1009.1
20260508164459 66 90 1.7 1.7 0.00 0.00 0.00 59 1009.3
20260508163956 64 157 0.9 1.7 0.00 0.00 0.00 60 1009.3
20260508163454 64 164 1.7 2.6 0.00 0.00 0.00 61 1009.3
20260508162949 63 131 0.9 1.7 0.00 0.00 0.00 61 1009.7
20260508162447 64 204 0.9 2.6 0.00 0.00 0.00 62 1009.7
20260508161944 64 97 0.9 1.7 0.00 0.00 0.00 62 1009.6
20260508161441 63 98 0.9 0.9 0.00 0.00 0.00 62 1009.5
20260508160938 63 180 0.9 2.6 0.00 0.00 0.00 61 1009.8
20260508160438 62 114 0.9 1.7 0.00 0.00 0.00 64 1009.8
20260508155933 63 142 2.6 4.3 0.00 0.00 0.00 64 1009.6
20260508155430 64 188 1.7 1.7 0.00 0.00 0.00 61 1009.6
20260508154927 63 83 0.0 0.9 0.00 0.00 0.00 61 1009.7
20260508154424 62 245 1.7 1.7 0.00 0.00 0.00 65 1009.8
20260508153921 63 114 0.0 0.9 0.00 0.00 0.00 63 1010.0
20260508153418 61 74 1.7 1.7 0.00 0.00 0.00 65 1010.0
20260508152914 61 111 0.9 1.7 0.00 0.00 0.00 65 1010.0
20260508152411 61 230 1.7 4.3 0.00 0.00 0.00 68 1010.0
20260508151908 61 129 0.9 2.6 0.00 0.00 0.00 67 1010.1
20260508151404 61 142 0.9 1.7 0.00 0.00 0.00 65 1010.0
20260508150901 59 260 1.7 2.6 0.00 0.00 0.00 68 1010.0
20260508150357 59 132 0.0 1.7 0.00 0.00 0.00 69 1010.0
20260508145854 59 108 0.9 2.6 0.00 0.00 0.00 68 1010.4
20260508145350 59 151 0.9 1.7 0.00 0.00 0.00 68 1010.1
20260508144847 58 155 0.9 0.9 0.00 0.00 0.00 69 1010.4
20260508144345 58 194 0.0 1.7 0.00 0.00 0.00 70 1010.3
20260508143842 59 189 2.6 2.6 0.00 0.00 0.00 66 1010.5
20260508143339 59 81 0.0 0.9 0.00 0.00 0.00 66 1010.4
20260508142836 59 108 0.0 0.9 0.00 0.00 0.00 66 1010.5
20260508142332 58 79 0.9 0.9 0.00 0.00 0.00 65 1010.4